Theta_e
343 343 341 334 333 333 335 334 332 332 335 338 340 338 337 336 338 338 338 336 335 340 338 338 338 339 339 339 336 332 330 329 328 329 330 328 329 331 334 325 320 324 320
342 342 338 335 336 335 335 334 334 335 336 337 338 339 340 341 341 341 341 339 339 339 341 341 341 339 338 337 336 335 335 334 330 327 326 328 329 329 332 333 327 322 320
341 339 338 337 334 333 334 335 336 337 337 338 340 340 340 340 339 338 338 338 338 338 338 338 338 338 338 337 338 337 336 336 336 335 332 328 324 327 331 333 333 329 326
338 337 337 336 335 336 336 337 338 338 340 337 336 334 332 331 330 329 327 327 329 330 330 330 331 331 332 333 335 337 339 340 338 336 336 335 332 328 331 335 335 334 333
337 336 335 336 337 337 339 339 339 339 336 333 330 325 321 318 316 313 312 312 312 313 315 318 320 322 322 323 324 328 331 332 335 338 337 337 336 333 333 337 338 337 337
337 336 336 339 339 339 337 340 338 335 330 325 319 315 312 310 311 312 313 314 314 314 316 319 322 321 321 320 320 322 323 319 319 325 334 337 336 336 334 336 339 339 335
337 336 340 339 340 340 339 336 334 327 320 315 310 309 309 311 314 314 314 314 318 320 321 322 322 322 323 323 323 324 320 313 312 312 314 318 324 331 335 336 336 339 338
337 338 340 341 340 339 336 332 322 318 312 310 311 312 314 314 315 315 314 315 320 319 321 322 322 321 322 322 323 322 316 316 316 315 312 313 314 313 319 329 335 337 337
339 340 340 340 338 336 331 321 317 311 311 312 312 313 315 314 315 314 314 314 317 319 320 321 321 321 321 318 317 316 316 316 316 316 316 316 316 317 323 326 330 336 337
340 340 339 338 335 330 322 315 311 312 312 313 313 313 313 314 314 313 312 312 312 313 316 319 319 319 315 316 316 316 316 316 316 316 315 315 316 321 323 334 334 335 333
340 339 338 336 328 321 316 313 312 312 313 313 313 311 311 311 311 310 310 310 311 312 311 311 313 314 315 315 316 316 316 316 316 316 316 316 317 322 331 331 331 330 330
339 338 334 326 322 319 315 313 313 312 312 313 312 309 308 309 308 307 308 309 311 308 306 311 313 313 312 313 315 316 316 317 317 317 317 316 321 324 326 326 326 327 328
336 332 330 325 321 319 314 313 313 313 313 312 309 306 307 307 307 307 307 308 308 306 307 310 310 307 306 311 315 316 316 317 316 317 317 317 318 323 323 324 324 325 326
331 328 323 322 320 317 313 313 313 313 312 311 307 307 307 306 306 307 307 307 307 307 308 309 307 305 304 308 313 315 316 316 316 316 317 317 318 321 323 323 323 324 324
327 325 324 322 320 315 313 313 312 313 312 309 307 307 307 307 307 307 307 307 307 307 307 308 307 306 304 303 310 313 314 315 316 316 317 318 319 319 321 322 321 321 321
329 327 326 324 319 313 313 312 312 312 311 308 307 307 307 308 308 308 308 308 307 307 307 307 307 306 305 303 306 309 310 313 315 316 317 318 318 319 320 321 320 319 319
330 328 326 324 318 313 312 312 312 312 310 308 307 308 308 308 308 308 308 308 308 308 307 307 306 306 305 303 306 310 311 314 316 316 318 318 318 317 317 319 317 316 316
331 329 326 323 319 315 313 312 312 312 310 308 308 308 309 309 308 308 308 309 308 308 307 307 306 306 306 304 306 312 312 315 316 317 316 315 314 314 314 315 313 313 313
334 329 327 324 321 316 313 313 312 312 311 308 308 308 309 309 308 308 309 310 309 308 308 307 307 306 306 305 307 313 314 315 316 316 315 314 314 314 314 313 312 311 311
333 330 328 325 321 317 314 313 312 312 311 308 307 308 308 309 309 309 310 310 310 309 309 308 307 307 306 306 306 314 314 314 316 315 314 314 314 315 314 312 311 310 310
330 329 326 323 320 318 315 313 313 312 312 310 310 310 309 309 309 310 311 310 310 310 309 309 308 307 307 307 307 307 313 313 312 313 312 312 313 314 314 313 311 311 310
329 327 324 321 320 318 315 314 313 313 311 310 310 308 309 310 310 312 311 311 311 311 310 309 309 308 307 307 307 306 304 308 312 308 310 309 309 308 309 310 311 311 310
323 323 322 321 320 317 315 314 313 313 312 310 310 310 310 311 312 311 310 311 311 311 311 310 309 309 308 307 308 308 303 304 304 308 309 309 308 307 307 308 310 308 308
310 310 314 317 318 316 315 314 314 313 311 311 311 310 311 311 309 309 309 309 309 311 311 311 310 309 308 308 307 308 307 308 304 304 306 306 307 306 307 307 306 306 308
310 310 310 311 313 315 315 314 313 312 311 311 310 311 308 308 308 307 307 308 308 309 309 310 310 310 309 308 307 307 308 307 306 305 304 305 307 306 306 306 306 306 309
312 312 311 313 314 314 314 314 313 311 311 311 311 308 307 307 306 305 305 306 306 307 307 307 308 309 310 309 309 307 307 307 306 305 302 303 305 307 307 305 306 308 308
Wind_Speed
18 18 15 13 12 12 12 12 11 10 10 9 8 9 8 7 7 8 8 9 7 7 4 5 6 6 6 7 7 7 7 6 6 6 7 7 6 6 6 7 6 7 7
24 18 15 15 14 13 12 11 11 10 9 8 7 7 6 6 6 7 9 8 8 8 6 7 7 7 8 8 9 8 8 8 8 7 8 8 8 8 8 7 7 7 7
24 19 16 15 14 13 12 11 9 8 8 7 7 7 8 8 8 8 7 7 8 8 7 7 8 9 9 9 10 11 10 10 10 9 9 9 10 9 9 10 10 8 8
25 21 18 15 14 13 12 10 8 7 6 5 4 5 5 6 6 6 7 7 8 7 7 8 9 10 10 11 11 11 11 12 12 11 12 11 11 10 9 11 11 11 10
24 21 18 15 13 12 11 9 8 6 4 4 4 5 5 6 7 7 8 8 9 9 9 10 10 11 11 12 12 12 13 13 11 11 13 14 13 12 12 10 13 14 13
23 20 17 14 13 11 10 9 6 4 3 4 4 5 5 6 7 9 10 10 11 12 12 12 11 12 12 13 14 14 14 14 14 12 13 14 14 15 16 17 16 19 17
22 19 16 14 13 11 10 7 4 4 3 4 5 5 6 6 8 9 11 11 12 13 12 12 12 12 12 13 13 13 14 14 16 16 15 15 16 17 17 18 18 19 19
23 19 16 13 12 10 8 6 4 4 3 4 5 6 7 7 8 9 10 11 11 13 12 12 13 13 13 14 13 13 14 14 15 14 13 14 16 18 18 19 19 17 20
21 19 16 13 10 8 6 5 4 3 4 4 5 6 6 6 5 8 9 10 11 13 12 12 14 14 13 14 13 14 14 14 14 13 13 13 13 14 15 18 19 16 16
21 18 16 13 10 8 6 5 4 3 3 4 5 6 6 5 6 8 9 10 11 12 12 13 14 14 14 13 13 13 13 13 12 13 14 14 14 14 14 14 10 10 10
21 19 16 13 11 9 6 5 3 2 2 3 5 6 5 6 7 8 9 11 11 12 13 14 14 14 14 13 13 13 13 13 13 12 13 13 13 11 9 10 9 6 7
21 18 16 14 11 8 6 4 2 2 2 3 5 6 6 6 8 9 9 10 11 14 15 14 14 15 15 15 13 11 12 13 12 13 13 12 9 8 8 10 9 9 9
21 18 15 13 11 7 5 5 2 1 1 3 5 5 7 8 8 10 11 13 14 16 16 16 16 18 19 17 13 12 11 10 11 11 11 10 7 7 7 9 9 9 8
20 17 15 12 10 8 6 6 3 1 1 3 4 5 7 8 10 12 14 14 15 17 17 17 19 20 20 17 14 13 11 10 10 11 9 10 5 5 7 9 10 10 9
20 17 14 12 11 9 7 5 3 1 1 3 3 5 6 8 11 12 14 14 16 17 18 18 19 21 23 22 15 14 12 11 10 9 8 7 4 5 7 10 11 11 11
19 17 15 13 11 9 8 6 4 2 1 2 2 4 5 7 10 12 14 15 15 16 17 18 19 21 23 24 20 15 12 9 8 6 6 4 3 4 7 9 11 12 12
19 16 15 13 11 9 8 6 4 2 1 1 2 3 4 6 9 12 14 15 15 16 16 17 18 20 24 26 22 15 11 7 7 7 5 5 6 6 6 9 12 12 11
18 17 15 14 12 10 8 6 4 3 2 2 2 2 3 6 9 11 13 15 15 15 16 17 19 21 24 27 22 16 8 7 7 6 6 7 8 9 10 11 14 12 12
19 18 17 15 13 10 9 7 5 4 4 3 4 3 4 6 9 11 13 14 14 15 15 17 17 19 23 28 18 15 11 8 8 5 5 6 6 8 10 11 13 16 13
20 18 16 15 13 10 9 7 6 6 5 4 4 5 5 6 9 10 12 13 14 14 14 14 16 17 17 25 15 11 12 12 6 6 4 5 6 5 8 10 13 11 14
19 16 17 16 14 12 10 8 7 8 6 4 4 6 6 8 9 11 12 13 13 14 14 14 15 17 17 21 13 8 5 6 12 7 7 5 5 4 9 11 7 9 12
18 17 17 16 14 12 10 7 5 4 3 4 6 6 6 7 9 11 12 12 12 13 13 13 13 13 9 14 9 4 4 3 4 3 4 11 8 9 10 10 9 10 12
12 15 16 16 15 12 11 8 5 4 5 5 4 5 6 8 10 12 12 12 12 12 12 12 12 11 9 8 9 2 3 2 7 3 4 6 9 16 15 13 9 13 14
6 8 11 13 15 13 12 9 7 7 6 5 6 7 9 10 9 9 11 12 12 12 13 13 12 11 10 10 6 3 4 5 2 4 4 10 7 20 19 14 19 17 12
3 4 6 10 12 13 12 10 8 8 6 6 7 8 9 7 9 10 12 12 12 12 13 14 14 13 12 12 10 7 5 7 9 5 4 5 18 17 14 25 13 14 7
2 2 5 7 10 11 10 8 7 6 5 6 7 7 8 10 11 12 13 13 13 14 14 14 14 14 15 14 14 13 12 8 4 5 3 4 11 15 24 11 13 8 4
Wind_Direction
168 160 159 146 136 128 122 118 114 105 94 80 67 58 50 47 45 46 48 44 39 17 13 8 4 4 360 356 351 347 341 338 335 332 326 324 324 330 338 336 319 315 320
159 164 156 146 139 132 124 116 109 101 91 79 64 50 34 29 37 44 41 30 24 19 15 2 354 344 339 333 330 328 325 321 323 325 320 312 309 305 304 299 312 313 310
156 157 154 148 141 133 124 114 104 94 84 74 69 64 48 38 34 29 23 16 16 9 2 357 351 345 335 322 318 312 310 306 307 311 312 310 304 293 301 286 288 296 297
155 155 153 149 141 133 124 114 102 91 86 69 51 35 25 20 16 5 4 4 2 357 350 344 339 334 329 324 325 327 333 313 297 303 304 307 307 292 293 289 269 279 282
153 153 151 148 142 132 121 115 115 107 69 46 36 36 29 24 17 9 3 358 352 346 342 338 335 330 326 322 321 327 328 320 320 307 300 301 302 295 281 288 265 262 264
150 151 151 147 141 132 126 129 119 95 66 46 29 20 19 17 15 12 11 4 359 350 344 340 338 335 333 329 325 321 317 308 309 307 302 298 296 294 285 277 277 257 259
149 151 148 151 146 144 139 132 115 92 66 40 26 16 15 15 19 19 7 7 7 10 9 360 357 354 351 347 342 334 325 320 310 301 298 298 297 293 292 291 293 257 259
150 151 152 156 154 149 138 127 112 91 67 49 38 32 22 19 11 11 12 9 6 4 1 360 356 353 349 345 341 342 342 336 333 320 309 309 308 297 289 295 302 289 287
153 155 160 160 154 146 138 127 113 98 83 62 35 22 29 19 23 7 6 6 3 3 4 2 1 359 353 350 345 340 340 339 337 334 330 326 331 325 307 306 298 299 293
158 159 161 161 156 151 141 125 117 106 80 49 29 21 14 16 20 16 10 8 6 4 3 2 1 355 344 339 338 339 339 343 338 339 336 330 325 325 322 325 310 302 302
159 161 163 164 159 153 143 135 122 94 62 38 24 12 15 15 15 12 11 10 6 8 1 358 354 348 342 339 338 338 339 340 339 342 341 343 342 330 348 9 5 347 333
160 164 166 165 162 161 160 161 147 93 61 21 13 14 27 27 23 21 21 18 15 7 4 4 1 356 353 348 346 345 354 358 349 343 342 344 357 349 357 9 9 7 358
164 166 173 175 175 179 185 187 179 116 49 22 17 30 35 33 30 32 27 21 14 9 8 6 4 360 357 353 350 351 354 1 4 357 357 345 352 0 6 10 7 1 356
166 168 171 175 186 189 198 191 195 168 36 26 41 41 35 40 38 32 25 19 15 11 9 8 4 3 2 359 348 345 342 344 351 354 352 352 348 11 21 19 15 9 4
171 174 180 186 191 197 200 200 206 221 17 33 52 43 39 38 34 28 23 18 15 11 7 3 1 2 1 358 352 342 334 332 338 346 4 359 3 22 40 41 22 15 6
182 184 189 196 199 202 207 213 208 233 350 37 45 44 38 31 25 23 19 16 12 8 4 1 360 360 359 359 355 348 342 340 351 7 12 22 29 32 42 44 30 17 4
193 192 200 202 203 206 210 220 230 244 264 351 25 28 24 17 16 14 11 9 6 3 1 359 0 360 1 2 2 1 3 16 20 13 47 48 40 29 16 31 31 17 359
197 200 207 209 212 213 218 223 234 256 281 289 323 346 344 356 0 358 1 2 358 357 357 358 359 2 1 1 5 13 16 28 35 75 62 50 44 38 24 31 26 12 4
206 206 209 213 217 217 221 228 234 254 278 288 295 323 325 334 343 347 352 352 351 352 354 354 359 4 1 357 9 27 53 47 56 72 67 43 35 31 39 21 3 9 5
209 211 217 216 218 218 221 231 245 262 275 285 298 318 315 319 331 337 342 345 346 346 348 351 355 2 5 357 357 47 74 54 51 54 45 20 5 3 5 353 343 355 1
208 209 214 215 216 217 220 231 253 264 269 292 306 315 313 313 323 331 335 339 342 343 344 347 351 357 6 4 354 16 67 59 50 44 67 46 15 348 332 332 355 348 343
209 215 215 219 219 221 226 233 250 275 291 304 310 314 315 319 325 329 331 332 332 336 342 345 349 352 351 4 360 331 360 336 275 311 36 37 37 17 6 347 332 337 338
211 221 224 226 223 221 221 224 238 267 290 297 310 315 326 327 327 325 325 322 320 320 328 340 341 341 332 347 4 18 351 305 322 326 257 312 344 348 334 334 330 324 318
222 229 231 229 224 220 218 223 239 263 272 284 308 319 327 329 329 332 333 330 328 320 317 326 330 327 310 317 332 268 286 271 288 322 303 317 330 335 334 325 320 310 303
197 213 215 215 211 208 206 216 246 256 270 296 311 321 330 337 336 338 334 332 331 331 327 325 320 316 303 298 293 293 291 275 257 242 291 304 315 323 327 325 327 321 303
151 172 189 187 186 191 200 227 252 267 292 305 319 327 332 334 336 337 332 329 329 326 323 323 317 308 298 289 280 272 265 258 256 247 268 291 300 317 322 334 324 329 268